Location: New Lenox
(42.3945°N, 73.2426°W)
Time: 04:48:38
(UTC+00:00)

Daily predictions for brighter satellites

Satellite Brightness Start Highest point End
(mag) Time Altitude Azimuth Time Altitude Azimuth Time Altitude Azimuth
Cosmos 2026 Rocket 4.2 00:55:20 10° SSW 01:01:30 76° W 01:07:37 10° N
Cosmos 2082 Rocket 2.8 00:57:21 10° SW 01:03:01 65° WNW 01:08:42 10° NNE
Cosmos 1707 2.8 01:01:34 10° SSE 01:05:02 48° E 01:08:32 10° NNE
Cosmos 2333 Rocket 4.1 01:01:27 10° N 01:05:22 18° NE 01:09:17 10° E
Cosmos 2369 3.9 01:00:51 10° NNW 01:06:36 77° WSW 01:12:18 10° SSE
RESURS DK-1 4.1 01:06:58 10° N 01:10:03 20° NE 01:13:08 10° ESE
MOS 1-B Rocket 4.2 01:04:53 10° S 01:11:03 73° WSW 01:16:43 10° NNW
PSLV R/B 3.8 01:07:52 10° S 01:11:24 68° W 01:14:54 10° NNW
ERS-1 Rocket 3.9 01:10:17 10° SE 01:14:42 32° ENE 01:19:09 10° N
Atlas Centaur 2 3.8 01:08:18 10° WSW 01:15:16 35° S 01:22:35 10° ESE
Cosmos 841 Rocket 4.4 01:12:55 10° N 01:17:45 35° ENE 01:22:32 10° SE
Cosmos 1763 Rocket 3.7 01:13:30 10° NNW 01:18:44 74° WSW 01:23:51 10° SSE
MetOp-B 4.4 01:14:46 10° SSE 01:19:59 57° ENE 01:25:14 10° N
USA 234 3.4 01:13:54 10° NE 01:20:16 53° SE 01:26:37 10° SSW
CZ-4C R/B 3.5 01:16:55 10° NNE 01:21:01 58° ESE 01:25:03 10° S
Cosmos 1674 3.2 01:18:17 10° SSW 01:21:42 55° W 01:25:06 10° N
Terra 2.9 01:18:08 10° SE 01:22:13 30° ENE 01:26:19 10° N
Spot 2 Rocket 4.5 01:24:07 10° SE 01:28:30 32° ENE 01:33:00 10° N
SL-27 R/B 3.8 01:28:29 13° ESE 01:29:08 14° E 01:30:38 10° ENE
SL-4 R/B 4.3 01:28:55 10° WNW 01:31:56 22° N 01:35:06 10° NE
BREEZE-M DEB (TANK) 3.0 01:32:27 10° WSW 01:35:35 89° NNW 01:45:17 10° ENE
IRS-1A Rocket 4.3 01:31:44 10° SSE 01:37:09 66° ENE 01:42:37 10° N
Cosmos 1300 4.1 01:34:39 10° NNE 01:37:24 21° ENE 01:39:22 14° ESE
ARGOS Delta rocket 3.6 01:36:18 10° SSE 01:40:46 83° ENE 01:45:10 10° N
Cosmos 1733 Rocket 4.5 01:37:46 10° NNE 01:41:22 24° ENE 01:44:03 14° ESE
Cosmos 1980 Rocket 3.8 01:36:42 10° NW 01:41:33 30° WSW 01:46:22 10° SSW
Cosmos 1441 Rocket 3.0 01:39:55 10° N 01:43:33 84° WSW 01:46:53 12° S
Cosmos 2322 Rocket 2.8 01:38:32 10° NNW 01:43:57 44° ENE 01:48:23 15° SE
Cosmos 1400 Rocket 2.8 01:40:22 10° S 01:44:09 56° E 01:47:57 10° NNE
Meteor 1-22 Rocket 4.4 01:40:57 10° N 01:46:36 63° ENE 01:51:41 14° SSE
Meteor 2-10 Rocket 4.1 01:41:43 10° N 01:47:04 47° ENE 01:51:05 16° SE
Okean-O 3.3 01:43:57 10° S 01:48:14 51° W 01:52:33 10° NNW
Cosmos 1908 3.3 01:44:48 10° NNW 01:48:24 70° W 01:51:48 11° S
Meteor 1-4 Rocket 4.4 01:49:01 11° E 01:49:01 11° E 01:49:47 10° ENE
SL-08 ROCKET BODY 4.5 01:43:03 10° S 01:49:07 65° E 01:55:06 10° NNE
ATLAS CENTAUR R/B 1.0 01:46:12 10° SSW 01:49:34 53° ESE 01:53:03 10° NE
Cosmos 1356 Rocket 4.1 01:46:47 16° SSE 01:49:39 35° E 01:53:29 10° NNE
Cosmos 468 Rocket 4.5 01:46:21 10° NNW 01:51:28 57° WSW 01:56:27 10° S
Ariane Rocket 3.4 01:49:18 16° SE 01:53:11 51° ENE 01:58:07 10° N
Cosmos 2278 3.8 01:51:18 10° NNW 01:57:01 75° WSW 02:01:45 15° SSE
USA 245 3.2 01:54:39 19° SSE 01:57:02 73° ENE 02:01:21 10° N
ATLAS 2AS CENTAUR R/B 3.2 01:54:35 10° NNW 02:01:12 48° NE 02:06:25 16° ESE
Timation 1 Rocket 4.4 01:57:56 10° SSW 02:03:54 88° WNW 02:09:54 10° NNE
Cosmos 1315 Rocket 4.5 02:03:13 17° ESE 02:04:04 18° E 02:06:45 10° NE
Cosmos 1953 4.4 02:03:05 10° NE 02:04:56 13° ENE 02:06:11 12° E
Cosmos 1470 4.5 02:02:05 10° NNW 02:05:16 28° W 02:08:26 10° SSW
Cosmos 2228 Rocket 3.3 02:02:00 16° S 02:05:28 57° E 02:09:58 10° NNE
Cosmos 1869 Rocket 3.8 02:01:25 10° NNW 02:05:51 69° W 02:09:37 14° S
Okean O Rocket 4.1 02:04:13 10° SW 02:07:10 18° W 02:10:08 10° NW
Cosmos 1850 Rocket 3.9 02:02:22 10° SSW 02:07:35 77° ESE 02:12:47 10° NNE
Cosmos 2219 Rocket 3.5 02:03:14 10° N 02:08:08 29° NE 02:11:59 15° ESE
BREEZE-M DEB (TANK) 3.4 02:06:47 10° NW 02:08:41 29° NNE 02:11:01 12° E
S3M 4.1 02:03:55 10° N 02:10:19 85° W 02:15:45 14° S
MOS 1 Rocket 3.6 02:07:54 19° SSE 02:11:51 76° ENE 02:17:10 10° N
BlueWalker 3 3.5 02:14:18 18° E 02:14:18 18° E 02:15:45 10° ENE
Landsat 4 3.5 02:11:53 28° SSE 02:13:32 67° ENE 02:16:56 10° N
Cosmos 2266 Rocket 4.3 02:11:15 10° SSW 02:17:32 71° W 02:23:57 10° N
Cosmos 968 Rocket 3.4 02:15:24 12° S 02:20:08 68° ESE 02:25:18 10° NNE
SeaSat 1 2.5 02:18:09 22° SSE 02:21:19 74° WSW 02:26:15 10° NNW
SPOT 3 Rocket 3.5 02:20:05 22° SSE 02:23:28 87° ENE 02:28:40 10° NNW
Cosmos 1655 Rocket 4.1 02:17:55 10° S 02:24:14 89° WNW 02:30:40 10° N
Tiangong 0.2 02:23:30 10° WSW 02:24:57 13° SW 02:24:57 13° SW
SPOT 5 4.2 02:22:26 10° SSW 02:26:13 30° W 02:30:03 10° NW
SL-14 R/B 3.3 02:24:50 18° SSW 02:27:31 71° W 02:31:19 10° N
Cosmos 1741 Rocket 4.2 02:22:58 10° SSW 02:28:13 75° WNW 02:33:33 10° NNE
Landsat 5 3.5 02:26:57 10° NNE 02:30:58 59° E 02:32:47 31° S
Cosmos 2360 Rocket 2.2 02:27:56 10° NNW 02:33:39 82° ENE 02:36:45 28° SSE
Cosmos 1346 Rocket 2.6 02:30:43 10° N 02:34:36 87° WSW 02:36:07 35° S
Cosmos 1814 Rocket 4.3 02:29:55 10° NNW 02:35:09 57° ENE 02:37:47 29° SE
Cosmos 1455 3.4 02:32:54 10° NNE 02:35:46 23° ENE 02:36:13 22° E
Okean 3 3.3 02:34:34 31° S 02:36:25 72° E 02:40:35 10° NNE
Cosmos 1862 Rocket 3.5 02:33:48 24° S 02:36:26 90° ESE 02:40:53 10° N
COSMOS 2455 4.0 02:44:44 22° ESE 02:45:17 23° ESE 02:49:49 10° ENE
SL-16 R/B 3.2 02:40:29 10° NW 02:45:41 38° WSW 02:49:14 19° SSW
RESURS DK-1 3.3 02:44:08 10° NW 02:47:54 37° WSW 02:49:28 26° SSW
Cosmos 2333 Rocket 2.2 02:44:34 10° NNW 02:50:21 81° WSW 02:53:10 32° SSE
SJ 16-02 1.4 02:50:25 23° SSW 02:53:04 76° WNW 02:57:24 10° NNE
ERS-1 Rocket 4.4 02:49:41 13° SSW 02:53:24 30° W 02:57:50 10° NW
Terra 3.3 02:56:42 15° SSW 02:59:45 29° W 03:03:52 10° NW
CZ-2C R/B 4.0 02:59:00 10° NNE 03:03:14 45° E 03:03:53 42° SE
USA 234 4.1 02:56:58 10° NE 03:03:15 52° NNW 03:09:32 10° WSW
Atlas Centaur 2 3.9 02:57:13 10° WSW 03:03:45 26° SSW 03:05:10 25° S
DNEPR-1 R/B 4.3 02:58:20 10° NNW 03:04:54 75° NE 03:07:12 36° SE
SL-08 R/B 4.4 03:04:03 32° S 03:06:58 73° E 03:13:04 10° NNE
Cosmos 2237 Rocket 4.2 03:04:50 10° N 03:08:41 18° NE 03:12:31 10° E
Aureole 3 4.3 03:06:44 25° SW 03:08:43 48° WNW 03:13:20 10° N
SL-4 R/B 4.0 03:08:16 10° NW 03:11:38 26° NNE 03:15:09 10° ENE
CZ-4C R/B 3.0 03:13:34 25° E 03:13:34 25° E 03:17:01 10° NE
Meteor 1-16 Rocket 4.4 03:07:03 10° NNW 03:12:58 71° W 03:15:43 33° S
Cosmos 2322 4.1 03:07:29 10° NNW 03:13:02 52° ENE 03:15:19 33° ESE
ARIANE 5 R/B 2.9 03:15:40 44° ESE 03:16:31 52° ENE 03:20:44 10° N
Cosmos 2333 4.5 03:13:15 10° NNW 03:18:57 62° WSW 03:21:08 37° S
Okean 1-7 3.4 03:19:45 36° SW 03:21:16 59° W 03:25:33 10° N
Meteor 1-4 Rocket 3.8 03:21:00 25° W 03:21:31 27° WNW 03:24:08 10° NNW
ATLAS CENTAUR R/B 4.1 03:25:29 10° WNW 03:27:32 15° NW 03:29:37 10° N
Cosmos 2322 Rocket 3.6 03:22:59 10° NW 03:27:44 28° WSW 03:30:11 20° SW
Cosmos 1486 Rocket 4.3 03:29:37 43° ESE 03:30:13 45° ESE 03:35:09 10° NNE
Okean 2 4.2 03:30:42 33° WSW 03:31:55 43° WNW 03:35:45 10° N
Cosmos 2297 Rocket 3.1 03:32:33 31° ESE 03:32:50 31° ESE 03:37:43 10° NE
Cosmos 1242 Rocket 3.4 03:34:06 36° NNW 03:34:06 36° NNW 03:35:59 10° N
Cosmos 1908 Rocket 3.6 03:29:45 10° NNW 03:34:04 66° W 03:34:47 55° SW
GP-B 3.0 03:30:37 10° N 03:35:03 86° W 03:35:47 62° S
Cosmos 1782 Rocket 3.5 03:32:41 10° N 03:37:00 66° E 03:37:25 62° ESE
Spot 4 4.4 03:38:28 40° ESE 03:39:29 46° ENE 03:44:05 10° N
Cosmos 1315 Rocket 4.2 03:38:28 25° WSW 03:39:55 33° WNW 03:43:33 10° N
Cosmos 1953 2.9 03:37:22 10° NNW 03:40:59 42° W 03:41:18 41° WSW
PSLV R/B 3.8 03:45:24 10° N 03:49:24 77° WNW 03:49:38 73° WSW
H-2A R/B 4.2 03:47:51 10° ENE 03:49:29 14° E 03:49:29 14° E
BlueWalker 3 2.7 03:48:25 21° W 03:50:40 50° NNW 03:54:19 10° NE
Cosmos 1745 Rocket 4.0 03:48:52 40° SSW 03:51:20 84° W 03:57:45 10° N
ATLAS 2AS CENTAUR R/B 3.5 03:45:51 10° NW 03:51:53 36° WSW 03:53:49 30° SSW
Cosmos 2219 Rocket 2.8 03:46:52 10° NW 03:52:14 45° WSW 03:53:40 37° SW
Cosmos 1300 Rocket 3.3 03:49:31 10° N 03:53:50 84° E 03:54:04 79° SE
Meteor 2-5 Rocket 4.2 03:53:35 43° SE 03:54:49 50° E 04:00:26 10° NNE
Cosmos 405 Rocket 4.4 03:51:57 10° NNE 03:54:54 23° ENE 03:54:54 23° ENE
COSMOS 2428 2.6 03:49:38 10° NNW 03:55:22 89° ENE 03:56:49 53° SSE
USA 281 3.2 03:54:58 43° S 03:57:17 76° WSW 04:03:54 10° NNW
Cosmos 304 Rocket 3.8 03:58:20 56° ESE 03:58:25 56° ESE 04:03:05 10° NNE
Cosmos 1408 3.7 04:03:14 34° NNW 04:03:14 34° NNW 04:05:08 10° N
Nadezhda 1 Rocket 4.1 03:56:05 10° NNW 04:02:19 68° W 04:04:20 43° SSW
Cosmos 1570 Rocket 4.3 04:00:03 10° NNW 04:05:17 57° WSW 04:06:15 49° SW
ALOS 2 2.7 04:06:37 58° E 04:06:56 60° ENE 04:11:16 10° N
Cosmos 158 Rocket 3.9 04:03:18 10° NNW 04:08:35 76° WSW 04:09:23 62° S
Okean 2 Rocket 4.4 04:05:34 10° NNE 04:09:26 28° ENE 04:09:56 27° E
Cosmos 1455 4.1 04:07:31 10° NW 04:09:56 19° W 04:09:56 19° W
Cosmos 1378 Rocket 4.5 04:11:41 36° E 04:11:41 36° E 04:15:29 10° NNE
Cosmos 2181 Rocket 4.5 04:06:09 10° N 04:12:06 47° ENE 04:13:55 37° ESE
Cosmos 2360 Rocket 4.3 04:14:07 10° WNW 04:16:49 14° W 04:18:30 12° WSW
Cosmos 1703 3.5 04:18:25 61° N 04:18:25 61° N 04:21:32 10° N
Cosmos 1892 4.3 04:19:11 23° ENE 04:19:11 23° ENE 04:21:10 10° NNE
BREEZE-M DEB (TANK) 4.4 04:11:09 10° WNW 04:21:49 43° N 04:25:14 10° ENE
H-2A R/B 2.9 04:22:37 53° W 04:22:37 53° W 04:26:47 10° NNW
Spot 2 4.3 04:23:04 67° SSE 04:23:47 89° ENE 04:28:52 10° NNW
Cosmos 2221 Rocket 4.3 04:27:05 41° E 04:27:05 41° E 04:31:08 10° NNE
COSMOS 2455 3.2 04:27:48 31° SW 04:30:41 61° WNW 04:36:41 10° NNE
Cosmos 773 Rocket 3.8 04:26:21 10° NNW 04:31:31 89° WSW 04:32:11 69° SSE
Cosmos 2242 Rocket 4.3 04:31:59 41° WSW 04:32:37 44° WNW 04:37:01 10° N
Sich 1 Rocket 4.0 04:31:11 10° N 04:35:29 51° E 04:35:34 51° E
SL-23 DEB 4.5 04:37:07 62° SSW 04:37:57 80° SE 04:45:37 10° ENE
NOSS 0 Rocket 4.0 04:34:09 10° NNW 04:40:19 63° WSW 04:41:34 52° SSW
CZ-3 Stage 3 4.3 04:19:51 10° W 04:41:56 34° SW 04:43:32 33° SSW
Cosmos 1825 3.2 04:45:15 36° NE 04:45:15 36° NE 04:47:33 10° NNE
Cosmos 1777 Rocket 4.0 04:44:04 59° SW 04:45:02 76° WNW 04:50:20 10° NNE
Cosmos 1503 Rocket 4.3 04:44:15 48° WSW 04:45:31 63° WNW 04:50:48 10° NNE
CENTAUR R/B 2.5 04:46:01 50° SE 04:46:33 52° ESE 04:52:58 10° NE
SL-16 R/B 3.7 04:41:41 10° N 04:46:42 31° NE 04:50:11 17° ESE
SL-4 R/B 2.1 04:46:46 10° NW 04:50:42 73° N 04:50:42 73° N
Cosmos 371 Rocket 4.4 04:49:55 31° W 04:51:17 37° WNW 04:55:46 10° N
Cosmos 2237 Rocket 2.1 04:47:44 10° NNW 04:53:25 79° WSW 04:54:21 62° S
Cosmos 2227 Rocket 2.1 04:55:36 62° S 04:56:32 78° ESE 05:02:13 10° NNE
Nadezhda 3 Rocket 4.5 04:53:02 10° N 04:59:07 51° ENE 05:01:13 37° SE
GEOS 3 Rocket 3.6 04:54:37 10° NE 04:59:43 60° ESE 04:59:59 59° SE
Meteor 1-24 Rocket 4.4 04:58:53 37° WSW 05:00:33 47° WNW 05:06:01 10° N
CZ-4C R/B 3.1 04:58:35 24° W 05:00:51 38° NW 05:06:04 10° NNE
Cosmos 2184 Rocket 4.0 05:04:30 53° S 05:06:10 85° E 05:12:35 10° N
Cosmos 1980 3.8 05:01:06 10° NNW 05:06:39 58° WSW 05:07:17 54° SW
Okean 1 Rocket 3.0 05:02:57 10° N 05:07:19 72° E 05:07:21 72° E
PSLV R/B 4.2 05:10:00 10° N 05:13:58 42° WNW 05:14:11 42° W
Cosmos 2297 Rocket 3.2 05:14:19 27° WSW 05:16:43 39° WNW 05:22:01 10° N
Aureole 1 Rocket 3.7 05:21:02 39° ENE 05:21:02 39° ENE 05:24:20 10° NNE
Meteor 1-21 Rocket 4.5 05:19:14 49° SE 05:20:30 61° E 05:26:07 10° NNE
Cosmos 2219 3.2 05:19:41 57° SSE 05:20:35 67° ESE 05:26:10 10° NNE
Cosmos 2154 Rocket 3.9 05:21:34 52° S 05:23:15 87° W 05:29:34 10° N
Cosmos 1898 Rocket 4.0 05:25:01 41° ESE 05:25:36 43° ESE 05:30:30 10° NNE
H-2A R/B 2.5 05:22:03 10° N 05:26:08 49° WNW 05:26:17 48° W
Cosmos 1975 Rocket 3.7 05:28:55 42° ESE 05:29:09 43° E 05:33:19 10° NNE
NOSS 3-2 (A) 3.0 05:34:24 61° S 05:35:14 75° ESE 05:41:10 10° NE
Cosmos 292 Rocket 3.7 05:35:18 66° SE 05:35:41 70° ESE 05:40:28 10° NNE
Resurs 1-4 Rocket 4.2 05:35:40 10° NE 05:38:54 16° E 05:41:06 13° ESE
NOSS 3-2 (C) 3.8 05:41:30 35° SE 05:42:07 36° ESE 05:47:23 10° NE
Cosmos 1455 Rocket 3.0 05:39:08 10° N 05:43:35 74° E 05:44:01 67° SE
Okean 2 Rocket 4.5 05:43:38 10° NNW 05:47:13 26° W 05:47:13 26° W
Cosmos 2263 Rocket 2.1 05:47:06 55° S 05:48:20 79° ESE 05:53:55 10° NNE
Helios 1A Rocket 3.4 05:48:10 45° E 05:48:33 47° ENE 05:52:12 10° N
Elektron 3 4.3 05:43:32 10° NW 05:48:47 79° NE 05:48:57 76° E
Cosmos 1461 3.2 05:53:11 51° E 05:53:11 51° E 05:56:37 10° NE
Cosmos 1025 Rocket 3.4 05:52:53 48° W 05:53:06 49° WNW 05:57:17 10° N
Cosmos 1680 Rocket 4.5 05:54:33 10° N 05:59:31 43° ENE 06:02:55 19° SE
Cosmos 1818 4.1 06:00:50 10° NNW 06:06:15 57° NE 06:11:04 13° SE
Cosmos 1844 Rocket 4.3 06:05:47 18° SE 06:07:59 22° E 06:12:12 10° NE
Cosmos 2341 Rocket 3.9 06:11:19 42° S 06:13:38 90° ESE 06:19:54 10° N
Cosmos 1869 3.3 06:10:32 10° N 06:14:12 61° E 06:14:31 58° ESE
COBE Rocket 4.1 06:12:38 10° NNE 06:17:47 68° E 06:19:27 42° SSE
Cosmos 1437 Rocket 4.4 06:19:56 22° ESE 06:20:58 25° E 06:24:07 10° NE
In-Cosmos 22 Rocket 4.4 06:19:43 41° SW 06:21:37 63° WNW 06:27:25 10° N
IDEFIX/ARIANE 42P 2.9 06:20:42 10° NNE 06:25:53 57° E 06:27:56 34° SSE
SL-16 R/B 2.6 06:25:35 10° NW 06:30:55 42° WSW 06:32:00 38° SW
Cosmos 1900 4.3 06:31:55 45° SSW 06:33:29 80° ESE 06:38:37 10° NE
CZ-2C R/B 4.0 06:30:17 10° NNE 06:35:20 41° E 06:38:01 23° SSE
Cosmos 858 Rocket 4.5 06:34:25 42° SSW 06:36:12 77° WNW 06:41:26 10° NNE
CENTAUR R/B 3.8 06:33:07 14° W 06:37:30 34° NW 06:43:54 10° NNE
Cosmos 2082 4.4 06:36:51 29° WSW 06:39:17 44° WNW 06:44:40 10° NNE
CZ-2C R/B 3.0 06:36:31 19° SSE 06:40:17 61° ENE 06:45:36 10° N
MOZ.5/SAFIR/RUBIN 5/SL-8 3.7 06:39:24 44° S 06:40:46 69° WSW 06:45:24 10° NNW
Cosmos 2227 Rocket 4.2 06:37:23 10° W 06:41:15 19° NW 06:45:09 10° N
MSX 3.9 06:36:30 10° NNE 06:42:14 70° ESE 06:45:07 30° S
CZ-2D R/B 2.5 06:37:45 10° NNE 06:43:00 57° E 06:45:37 29° SSE
Cosmos 1821 Rocket 4.1 06:40:25 28° S 06:43:44 71° E 06:49:50 10° NNE
Cosmos 1943 3.2 06:39:08 10° NNW 06:44:46 80° ENE 06:49:35 14° SSE
USA 238 DEB 3.7 06:45:17 32° S 06:48:11 64° ESE 06:54:43 10° NE
USA 238 3.7 06:45:20 32° S 06:48:14 63° ESE 06:54:46 10° NE
Cosmos 2218 Rocket 4.1 06:45:40 33° SSW 06:48:29 63° W 06:54:38 10° N
Cosmos 1606 3.0 06:45:51 10° NNW 06:49:14 42° W 06:49:14 42° W
Cosmos 1867 3.7 06:49:37 34° S 06:51:56 64° ESE 06:57:21 10° NE
Cosmos 2228 2.9 06:47:47 10° NNW 06:52:06 75° W 06:53:30 41° S
Iridium 921 4.5 06:53:24 54° WSW 06:53:40 57° W 06:57:05 10° N
Cosmos 2366 rocket 4.3 06:51:04 31° SW 06:53:57 55° WNW 07:00:06 10° N
Cosmos 1544 Rocket 3.9 06:51:04 10° NNW 06:55:21 50° W 06:56:27 39° SW
H-2A R/B 3.3 06:54:13 10° N 06:58:13 78° WNW 06:59:26 43° SSW
Cosmos 923 Rocket 4.5 06:54:47 10° NW 06:59:40 40° WSW 07:01:11 33° SW
Cosmos 1937 Rocket 4.4 07:00:05 24° WSW 07:02:27 36° WNW 07:07:18 10° N
NPP 3.7 06:57:37 10° N 07:02:59 70° WNW 07:05:42 30° SSW
ADEOS II 2.5 06:58:01 10° NNE 07:03:12 58° E 07:06:30 22° S
ALOS 3.6 07:01:54 10° NNE 07:06:05 33° E 07:09:33 14° SSE
Cosmos 2227 4.5 07:11:34 27° SW 07:14:41 60° WNW 07:20:24 10° NNE
Resurs 1-4 Rocket 2.2 07:13:54 10° N 07:19:08 65° WNW 07:22:10 25° SSW
Cosmos 1934 Rocket 4.5 07:15:09 13° S 07:20:48 60° E 07:27:04 10° NNE
SL-16 R/B 2.8 07:16:45 10° SSE 07:22:57 70° ENE 07:29:10 10° N
Cosmos 1844 3.8 07:19:48 24° SSW 07:23:26 82° ESE 07:29:16 10° NNE
Cosmos 921 Rocket 2.9 07:22:12 10° NNW 07:26:27 89° NE 07:30:19 12° SSE
Cosmos 1606 Rocket 3.5 07:26:25 10° N 07:30:52 81° W 07:34:19 16° S
NOSS 3-2 (C) 4.3 07:28:54 15° WSW 07:32:51 37° NW 07:38:38 10° NNE
Cosmos 2263 Rocket 4.1 07:29:10 10° W 07:32:54 18° NW 07:36:39 10° N
USA 267 3.5 07:28:05 10° NE 07:34:33 61° SE 07:39:25 18° SSW
Cosmos 2058 3.7 07:34:18 12° SSE 07:37:54 47° E 07:41:49 10° NNE
Meteor 1-28 Rocket 2.9 07:35:58 16° S 07:38:42 82° W 07:42:15 10° NNW
BREEZE-M DEB (TANK) 3.9 07:34:40 18° SSW 07:40:26 40° SSE 07:43:41 10° E
Iridium 2 2.4 07:44:41 32° S 07:45:39 80° W 07:48:07 10° N
Cosmos 1726 Rocket 3.5 07:41:30 10° NNW 07:45:57 75° W 07:50:10 11° S
Alouette 2 Rocket 3.5 07:44:26 15° S 07:48:25 85° ESE 07:52:10 10° NNE
Cosmos 1238 Rocket 3.8 07:45:29 10° N 07:48:35 35° ENE 07:51:23 10° SSE
Cosmos 1844 Rocket 3.1 07:47:26 18° SW 07:51:27 52° WNW 07:56:54 10° NNE
Cosmos 724 4.4 07:49:32 10° NNW 07:55:22 83° ENE 08:01:14 10° SE
Cosmos 1437 Rocket 4.3 07:54:44 15° WSW 07:56:34 21° WNW 07:59:30 10° NNW
Delta 2 Rocket 4.4 07:57:55 18° SW 07:59:33 23° SSW 08:02:56 10° SE
SEDSat Delta rocket 4.4 07:59:34 16° SSW 08:00:46 18° S 08:03:31 10° SE
SAR-Lupe-1 4.0 07:58:33 10° NNE 08:02:08 85° WNW 08:05:16 13° SSW
IDEFIX/ARIANE 42P 4.3 08:01:14 10° NNW 08:04:55 20° WNW 08:08:37 10° WSW
ASTEX 1 3.9 08:04:21 13° SSW 08:08:25 40° W 08:13:00 10° NNW
USA 234 4.5 08:02:53 10° E 08:09:03 46° NNE 08:15:14 10° NW
CZ-2C R/B 3.1 08:08:59 10° NNE 08:13:23 47° E 08:17:49 10° S
Envisat 3.1 08:09:23 10° NNE 08:14:28 79° ESE 08:19:32 10° S
Timation 2 Rocket 4.1 08:08:33 12° SSW 08:14:48 77° WNW 08:21:13 10° NNE
CZ-2C R/B 4.4 08:10:30 10° N 08:14:54 26° WNW 08:19:01 10° WSW
Cosmos 2278 Rocket 4.3 08:12:22 10° SSE 08:16:36 22° E 08:20:51 10° NE
Cosmos 1048 Rocket 4.4 08:12:20 10° NNW 08:17:14 42° WSW 08:22:10 10° S
Lacrosse 5 4.3 08:16:11 10° SE 08:18:04 12° ESE 08:19:58 10° E
CZ-2C R/B 4.2 08:17:59 11° SW 08:20:59 17° W 08:24:26 10° NW
CZ-2D R/B 3.7 08:18:45 10° NNW 08:22:33 20° WNW 08:26:18 10° WSW
Cosmos 1125 Rocket 4.0 08:21:21 11° SW 08:26:18 48° WNW 08:31:26 10° N
Genesis I 3.9 08:23:12 10° NNW 08:26:46 54° NE 08:30:19 10° SE
Cosmos 2058 Rocket 3.3 08:22:31 10° NNW 08:26:49 51° W 08:31:03 10° SSW
BREEZE M DEB (TANK) 4.4 08:16:07 10° WNW 08:26:52 59° NNE 08:30:21 10° E
UNK 4.0 08:22:29 10° S 08:26:55 47° W 08:31:21 10° NNW
Cosmos 1271 Rocket 4.1 08:23:39 10° SSE 08:26:55 35° E 08:30:13 10° NNE
Cosmos 1544 2.6 08:24:37 11° SSW 08:27:02 45° W 08:29:34 10° N
Cosmos 1758 Rocket 4.0 08:26:18 10° S 08:30:41 63° E 08:35:02 10° NNE
Cosmos 1607 4.3 08:26:23 10° NW 08:32:22 44° WSW 08:38:13 10° S
NOSS 2-2 (E) 3.2 08:35:05 10° SSW 08:38:29 60° ESE 08:41:34 10° NE
YAOGAN 6 2.3 08:35:34 10° NNE 08:38:47 80° ESE 08:41:56 10° S
Cosmos 2150 Rocket 4.2 08:36:37 10° SSW 08:41:47 64° WNW 08:47:04 10° NNE
Cosmos 1812 4.0 08:39:13 10° NW 08:41:58 21° W 08:44:42 10° SW
Iridium 4 Rocket 3.8 08:37:58 10° NNW 08:42:10 39° W 08:46:42 10° SSW
ADEOS II 3.7 08:38:41 10° NNW 08:42:22 20° WNW 08:46:01 10° WSW
ALOS 3.5 08:39:21 10° NNW 08:43:08 25° WNW 08:46:54 10° WSW
SWAS 4.5 08:39:52 10° SSW 08:44:01 68° WNW 08:48:13 10° NNE
Cosmos 1605 Rocket 4.3 08:39:33 10° SSW 08:45:34 52° WNW 08:51:33 10° N
PAYLOAD A 4.2 08:41:15 10° NNE 08:46:30 89° E 08:51:53 10° SSW
